User: anonymous   Login
Location: ?????
(42.2640°N, 43.4211°E)
Time: 18:55:16
(UTC+00:00)
Language:

Meteor 2-10 - Orbit

View from above orbital plane
View from above orbital plane
View from above satellite
View from above satellite

Ground track
Ground track

The orbit data is extracted from the following two-line orbital elements,

1 14452U 83109A   20296.06099846  .00000037  00000-0  90520-5 0  9999
2 14452  81.1586 281.8838 0091980  73.4480 287.6778 14.26513786923369
Epoch (UTC): 22 October 2020 01:27:50
Eccentricity: 0.0091980
inclination: 81.1586°
perigee height: 737 km
apogee height: 869 km
right ascension of ascending node: 281.8838°
argument of perigee: 73.4480°
revolutions per day: 14.26513786
mean anomaly at epoch: 287.6778°
orbit number at epoch: 92336

The dashed part of the orbit path shows where the satellite is in the earth's shadow,  

DLR